Weather History for YBHM - November, 2012

Change the Weather History Date:

Sunday, November 4, 2012

  Actual Average Record
Temperature  
Mean Temperature 77 °F -  
Max Temperature 80 °F - - ()
Min Temperature 74 °F - - ()
Cooling Degree Days 12    
Growing Degree Days 27 (Base 50)    
Moisture  
Dew Point 65 °F    
Average Humidity 65    
Maximum Humidity 78    
Minimum Humidity 45    
Precipitation  
Precipitation 0.00 in - - ()
Sea Level Pressure  
Sea Level Pressure 29.96 in    
Wind  
Wind Speed 14 mph ()    
Max Wind Speed 25 mph    
Max Gust Speed -    
T = Trace of Precipitation, MM = Missing Value Source: Averaged Metar Reports

Daily Weather History Graph

Daily Weather History Graph

Search for Another Location

Airport or City:

Trip Planner

Search our weather history database for the weather conditions in past years. The results will help you decide how hot, cold, wet, or windy it might be!

Date:

Astronomy

Nov. 04, 2012 Rise Set
Actual Time 5:20 AM AEST 6:15 PM AEST
Civil Twilight 4:57 AM AEST 6:38 PM AEST
Nautical Twilight 4:30 AM AEST 7:05 PM AEST
Astronomical Twilight 4:02 AM AEST 7:33 PM AEST
Moon 10:37 PM AEST (11/4) 9:11 AM AEST (11/4)
Length of Visible Light 13h 40m
Length of Day
12h 54m
Waning Gibbous, 77% of the Moon is Illuminated
Nov 4
Waning Gibbous
Nov 7
Last Quarter
Nov 14
New
Nov 21
First Quarter
Nov 29
Full

Hourly Weather History & Observations

Time (AEST) Temp. Heat Index Dew Point Humidity Pressure Visibility Wind Dir Wind Speed Gust Speed Precip Events Conditions
12:00 AM 75 °F - 61 °F 53% 29.94 in - East 13.8 mph - -  
12:00 AM 75.2 °F - 60.8 °F 61% 29.95 in - East 13.8 mph - N/A   Unknown
12:30 AM 75.2 °F - 64.4 °F 69% 29.92 in - East 13.8 mph - N/A   Unknown
1:00 AM 75.2 °F - 62.6 °F 65% 29.92 in - ENE 11.5 mph - N/A   Unknown
1:30 AM 75.2 °F - 60.8 °F 61% 29.92 in - East 12.7 mph - N/A   Unknown
2:00 AM 75.2 °F - 60.8 °F 61% 29.92 in - East 15.0 mph - N/A   Unknown
2:30 AM 75.2 °F - 62.6 °F 65% 29.92 in - ESE 16.1 mph - N/A   Unknown
3:00 AM 75 °F - 62 °F 55% 29.91 in - ESE 16.1 mph - -  
3:00 AM 75.2 °F - 62.6 °F 65% 29.92 in - ESE 16.1 mph - N/A   Unknown
3:30 AM 75.2 °F - 62.6 °F 65% 29.92 in - ESE 18.4 mph - N/A   Unknown
4:00 AM 75.2 °F - 62.6 °F 65% 29.92 in - East 16.1 mph - N/A   Unknown
4:30 AM 75.2 °F - 60.8 °F 61% 29.92 in - East 17.3 mph - N/A   Unknown
5:00 AM 75.2 °F - 60.8 °F 61% 29.92 in - East 17.3 mph - N/A   Unknown
5:30 AM 75.2 °F - 60.8 °F 61% 29.95 in - East 16.1 mph - N/A   Unknown
6:00 AM 76 °F - 59 °F 45% 29.95 in - East 17.3 mph - -  
6:00 AM 75.2 °F - 59.0 °F 57% 29.95 in - East 17.3 mph - N/A   Unknown
6:30 AM 77.0 °F - 59.0 °F 54% 29.98 in - East 16.1 mph - N/A   Unknown
7:00 AM 77.0 °F - 66.2 °F 69% 29.98 in - East 15.0 mph - N/A   Unknown
7:30 AM 78.8 °F - 64.4 °F 61% 29.98 in - East 17.3 mph - N/A   Unknown
8:00 AM 78.8 °F - 66.2 °F 65% 30.01 in - East 16.1 mph - N/A   Unknown
8:30 AM 78.8 °F - 66.2 °F 65% 30.01 in - East 16.1 mph - N/A   Unknown
9:00 AM 80 °F - 68 °F 58% 30.01 in - East 15.0 mph - -  
9:00 AM 80.6 °F 83.2 °F 68.0 °F 65% 30.01 in - East 15.0 mph - N/A   Unknown
9:30 AM 78.8 °F - 66.2 °F 65% 30.01 in - East 15.0 mph - N/A   Unknown
10:00 AM 78.8 °F - 66.2 °F 65% 30.01 in - East 13.8 mph - N/A   Unknown
10:30 AM 78.8 °F - 66.2 °F 65% 30.01 in - ESE 13.8 mph - N/A   Unknown
11:00 AM 80.6 °F 83.2 °F 68.0 °F 65% 29.98 in - East 13.8 mph - N/A   Unknown
11:30 AM 80.6 °F 83.2 °F 68.0 °F 65% 29.98 in - East 15.0 mph - N/A   Unknown
12:00 PM 80 °F - 67 °F 56% 29.96 in - East 13.8 mph - -  
12:00 PM 80.6 °F 82.7 °F 66.2 °F 61% 29.95 in - East 13.8 mph - N/A   Unknown
12:30 PM 80.6 °F 83.2 °F 68.0 °F 65% 29.95 in - East 16.1 mph - N/A   Unknown
1:00 PM 78.8 °F - 68.0 °F 69% 29.95 in - East 17.3 mph - N/A   Unknown
1:30 PM 80.6 °F 83.2 °F 68.0 °F 65% 29.92 in - East 17.3 mph - N/A   Unknown
2:00 PM 78.8 °F - 68.0 °F 69% 29.92 in - East 16.1 mph - N/A   Unknown
2:30 PM 78.8 °F - 68.0 °F 69% 29.92 in - East 15.0 mph - N/A   Unknown
3:00 PM 78 °F - 67 °F 62% 29.92 in - East 13.8 mph - -  
3:00 PM 78.8 °F - 68.0 °F 69% 29.92 in - East 13.8 mph - N/A   Unknown
3:30 PM 78.8 °F - 66.2 °F 65% 29.92 in - East 12.7 mph - N/A   Unknown
4:00 PM 78.8 °F - 66.2 °F 65% 29.92 in - East 11.5 mph - N/A   Unknown
4:30 PM 77.0 °F - 66.2 °F 69% 29.92 in - East 13.8 mph - N/A   Unknown
5:00 PM 77.0 °F - 66.2 °F 69% 29.95 in - East 12.7 mph - N/A   Unknown
5:30 PM 77.0 °F - 68.0 °F 74% 29.95 in - East 12.7 mph - N/A   Unknown
6:00 PM 76 °F - 66 °F 65% 29.96 in - East 13.8 mph - -  
6:00 PM 77.0 °F - 66.2 °F 69% 29.95 in - East 13.8 mph - N/A   Unknown
6:30 PM 77.0 °F - 66.2 °F 69% 29.98 in - East 13.8 mph - N/A   Unknown
7:00 PM 77.0 °F - 66.2 °F 69% 29.98 in - East 13.8 mph - N/A   Unknown
7:30 PM 77.0 °F - 66.2 °F 69% 29.98 in - ESE 12.7 mph - N/A   Unknown
8:00 PM 77.0 °F - 66.2 °F 69% 29.98 in - ESE 13.8 mph - N/A   Unknown
8:30 PM 75.2 °F - 66.2 °F 73% 30.01 in - East 19.6 mph - N/A   Unknown
9:00 PM 75 °F - 67 °F 69% 30.01 in - ESE 20.7 mph - -  
9:00 PM 75.2 °F - 66.2 °F 73% 30.01 in - ESE 20.7 mph - N/A   Unknown
9:30 PM 75.2 °F - 68.0 °F 78% 30.01 in - ESE 20.7 mph - N/A   Unknown
10:00 PM 75.2 °F - 64.4 °F 69% 30.01 in - ESE 18.4 mph - N/A   Unknown
10:30 PM 75.2 °F - 66.2 °F 73% 30.01 in - ESE 20.7 mph - N/A   Unknown
11:00 PM 75.2 °F - 64.4 °F 69% 30.01 in - ESE 25.3 mph - N/A   Unknown
11:30 PM 75.2 °F - 66.2 °F 73% 30.01 in - ESE 23.0 mph - N/A   Unknown